Location: Coopersdale
(40.3556°N, 78.9372°W)
Time: 02:01:00
(UTC+00:00)

Tiros 1 despin weight - Pass Details

Date: 27 January 2021
Orbit: 593 x 642 km, 48.2° (Epoch: 02 March)

Event Time Altitude Azimuth Distance (km) Brightness Sun altitude
Rises 19:08:59 0° 256° (WSW) 2,902 ? 26.9°
Reaches altitude 10° 19:11:23 10° 262° (W) 1,988 ? 26.7°
Maximum altitude 19:15:49 50° 338° (NNW) 783 ? 26.3°
Drops below altitude 10° 19:20:13 10° 55° (NE) 1,963 ? 25.9°
Sets 19:22:34 0° 60° (ENE) 2,860 ? 25.7°
